Flag for Germany Weather past 2 weeks in Cuxhaven, Lower Saxony, Germany

Now
72 °F

Scattered clouds.


Feels Like: 71 °F
Forecast: 64 / 75 °F
Wind: 6 mph from Northeast

Location: Nordholz

Current Time: Jul 28, 2014 at 11:41:45 PM

Latest Report: Jul 28, 2014 at 10:20 PM


Visibility: N/A

Pressure: 29.92 "Hg

Humidity: 83%

Dew point: 66 °F

Location of CuxhavenLocation

Historic Weather in Cuxhaven — Graph

°F

Cuxhaven temperature yesterday

Maximum temperature yesterday: 77 °F (at 12:20 PM)
Minimum temperature yesterday: 63 °F (at 6:20 AM)
Average temperature yesterday: 69 °F

Past Weeks' High & Low Weather Summary

 TemperatureHumidityPressure
High90 °F (Jul 19, 3:20 PM)100% (Jul 14, 12:20 AM)30.21 "Hg (Jul 14, 12:20 AM)
Low52 °F (Jul 17, 2:20 AM)33% (Jul 19, 5:20 PM)29.65 "Hg (Jul 14, 12:20 AM)
Average70 °F73%30.01 "Hg
* Reported Jul 13 10:20 PM — Jul 28 10:20 PM, Cuxhaven, Weather by CustomWeather, © 2014

Note: Actual official high and low records may vary slightly from our data, if they occured in-between our weather recording intervals... More about our weather records

Advertising

Cuxhaven weather history for previous 24 hours

 ConditionsComfort  
Time TempWeatherWind HumidityBarometerVisibility
10:20 PM
Jul 28
72 °FScattered clouds.6 mph83%29.92 "HgN/A
9:20 PM73 °FScattered clouds.12 mph78%29.89 "HgN/A
8:20 PM75 °FScattered clouds.13 mph78%29.89 "HgN/A
7:20 PM77 °FScattered clouds.12 mph74%29.89 "HgN/A
6:20 PM77 °FPassing clouds.12 mph69%29.89 "HgN/A
5:20 PM77 °FPassing clouds.10 mph61%29.89 "HgN/A
4:20 PM79 °FPassing clouds.10 mph61%29.92 "HgN/A
3:48 PM79 °FPassing clouds.10 mph61%29.92 "HgN/A
3:20 PM77 °FPassing clouds.10 mph61%29.92 "HgN/A
2:20 PM77 °FScattered clouds.10 mph65%29.92 "HgN/A
1:20 PM77 °FScattered clouds.12 mph65%29.95 "HgN/A
12:20 PM75 °FScattered clouds.9 mph65%29.95 "HgN/A
11:20 AM73 °FScattered clouds.7 mph69%29.95 "HgN/A
10:20 AM72 °FScattered clouds.6 mph78%29.95 "HgN/A
9:20 AM70 °FScattered clouds.7 mph83%29.98 "HgN/A
8:20 AM68 °FPassing clouds.3 mph94%29.98 "Hg4 mi
7:46 AM66 °FFog.1 mph100%29.98 "Hg3 mi
7:20 AM64 °FFog.2 mph100%29.98 "Hg2 mi
6:20 AM61 °FFog.2 mph100%29.95 "Hg1 mi
5:20 AM61 °FFog.2 mph100%29.95 "Hg0 mi
4:20 AM61 °FFog.1 mph100%29.98 "Hg2 mi
3:20 AM61 °FFog.1 mph100%29.98 "HgN/A
2:20 AM63 °FFog.2 mph100%29.95 "HgN/A
1:20 AM63 °FFog.3 mph100%29.98 "Hg6 mi
12:20 AM63 °FFog.3 mph100%29.98 "Hg6 mi
11:20 PM
Jul 27
64 °FPassing clouds.2 mph94%29.98 "Hg6 mi
Weather by CustomWeather, © 2014

See weather overviewHow to use our weather pages